630  
ASUS43 KDMX 241306  
RWRIA  
 
WEATHER ROUNDUP FOR IOWA  
NATIONAL WEATHER SERVICE DES MOINES IA  
800 AM CDT MON APR 24 2017  
 
NOTE: "FAIR" INDICATES FEW OR NO CLOUDS BELOW 12,000 FEET WITH NO  
SIGNIFICANT WEATHER AND/OR S TO VISIBILITY
.  
 
* - THESE STATIONS ARE NOT NWS STATIONS...THUS NOT UNDER NWS  
QUALITY CONTROL. THEY ALSO DO NOT REPORT WEATHER SUCH  
AS PRECIPITATION OR FOG.
 
 
IAZ001>003-012>014-020>022-031>034-043>046-241400-  
NORTHWEST IOWA  
 
CITY SKY/WX TMP DP RH WIND PRES REMARKS
 
CARROLL * CLOUDY 54 37 54 S15 29.81F  
CHEROKEE * CLOUDY 52 37 55 S16 29.75F  
DENISON * CLOUDY 52 37 58 S12G18 29.80F  
LE MARS * CLOUDY 55 37 50 S16G28 29.70F  
ORANGE CITY * CLOUDY 52 37 58 S15 29.70F  
SHELDON * MOSUNNY 52 36 54 S20G26 29.70F  
SIOUX CITY PTSUNNY 53 39 59 SE15 29.71F  
SPENCER CLOUDY 51 36 56 MISG 29.75F  
STORM LAKE * CLOUDY 50 36 57 S18 29.77F  

 
 
IAZ055>058-069>071-079>083-090>094-241400-  
SOUTHWEST IOWA  
 
CITY SKY/WX TMP DP RH WIND PRES REMARKS
 
ATLANTIC * MOSUNNY 54 37 54 S15 29.81F  
AUDUBON * MOSUNNY 54 37 54 S12G18 29.82F  
CLARINDA * MOSUNNY 52 39 62 S12 29.86F  
COUNCIL BLFS * CLOUDY 50 39 66 SE13 29.78F  
CRESTON * CLOUDY 50 37 62 S12 29.87F  
HARLAN * CLOUDY 54 37 54 S17 29.82F  
LAMONI PTSUNNY 48 36 63 S9 29.89F  
RED OAK * CLOUDY 55 37 50 S16G22 29.81F  
SHENANDOAH * CLOUDY 54 37 54 S17 29.81F  

 
 
IAZ047>049-059>061-072>074-084-241400-  
CENTRAL IOWA  
 
CITY SKY/WX TMP DP RH WIND PRES REMARKS
 
AMES CLOUDY 49 40 71 SE7 29.87S  
ANKENY * MOSUNNY 52 37 58 S8 29.88F  
BOONE * CLOUDY 52 36 54 S10 29.85S  
CHARITON * MOSUNNY 50 36 57 S9 29.90F  
DES MOINES CLOUDY 52 36 54 SE12 29.87F  
GRINNELL* CLOUDY 50 33 52 S10 29.93S  
KNOXVILLE * MOSUNNY 52 34 50 SE8 29.89F  
MARSHALLTOWN CLOUDY 53 34 48 SE12 29.89S  
NEWTON * MOSUNNY 50 36 57 SE9 29.90S  
PELLA * CLOUDY 52 34 49 S8 29.92S  
PERRY * N/A 49 34 55 S12 29.85S  

 
 
IAZ004>006-015-016-023>025-035-036-241400-  
NORTH CENTRAL IOWA  
 
CITY SKY/WX TMP DP RH WIND PRES REMARKS
 
ALGONA * PTSUNNY 52 37 58 S13 29.81F  
CLARION * MOSUNNY 52 36 54 S15 29.84F  
ESTHERVILLE MOSUNNY 49 37 63 S17 29.77F  
FORT DODGE * CLOUDY 54 34 47 S12G20 29.83F  
MASON CITY CLOUDY 49 37 63 SE10 29.87S  
FOREST CITY * N/A 48 37 66 S10 29.84S  
WEBSTER CITY * CLOUDY 52 36 54 SE14 29.83F  
IOWA FALLS * N/A 52 37 56 SE9 29.89R  

 
 
IAZ007>011-017>019-026>030-037>042-050>054-066-241400-  
NORTHEAST IOWA  
 
CITY SKY/WX TMP DP RH WIND PRES REMARKS
 
CEDAR RAPIDS CLOUDY 52 36 54 S9 29.94S  
CHARLES CITY * CLOUDY 50 34 53 SE9 29.89S  
CLINTON * CLOUDY 51 35 54 SE8 29.99S  
DECORAH * CLOUDY 52 34 50 S10 29.90S  
DUBUQUE CLOUDY 52 32 46 S12 29.97R  
MONTICELLO * SUNNY 54 36 50 SE9 29.95S  
OELWEIN * MOSUNNY 52 37 58 S9 29.92S  
WATERLOO MOSUNNY 53 33 46 S12 29.90R  

 
 
IAZ064-065-067-068-078-241400-  
EAST CENTRAL IOWA  
 
CITY SKY/WX TMP DP RH WIND PRES REMARKS
 
DAVENPORT MOSUNNY 50 36 58 E7 29.99R  
IOWA CITY CLOUDY 50 39 66 SE6 29.97S  
MT. PLEASANT * CLOUDY 51 35 52 S6 29.97S HAZE  
MUSCATINE * PTSUNNY 46 43 87 CALM 29.99R  
QUAD CITIES CLOUDY 50 38 63 E6 29.98R  

 
 
IAZ062-063-075>077-085>089-095>099-241400-  
SOUTHEAST IOWA  
 
CITY SKY/WX TMP DP RH WIND PRES REMARKS
 
BURLINGTON CLOUDY 53 36 52 S5 29.97R  
FAIRFIELD * CLOUDY 54 34 47 SE8 29.95S  
FORT MADISON * CLOUDY 54 34 47 S6 29.98R  
KEOKUK * CLOUDY 54 36 50 SE5 29.97R  
OSKALOOSA * N/A 49 37 62 SE12 29.93F  
CENTERVILLE * N/A 52 36 54 S7 29.94F  
OTTUMWA CLOUDY 52 35 52 SE7 29.94R  

 
 
ABBREVIATIONS USED IN REMARKS  
TC - TEMPERATURES IN CELSIUS  
WCI - WIND CHILL INDEX  
HX - HEAT INDEX  
VSB - VISIBILITY  

 
 
 
 
CLICK HERE TO GO TO PREVIOUS BULLETINS.

The Nexlab IA Page Main Text Page